This is the latest recevied weather packets stored in our database for station/object F4JUT-10. If no packets are shown the sender has not sent any weather packets the latest 10 day(s).
| Time | Temp. | Humidity | Pressure | Rain* | Wind** | Luminosity | Snow |
|---|---|---|---|---|---|---|---|
| 1777514569 | 12.22° C | 80% | 1020.3 hPa | - | - | - | - |
| 1777513669 | 12.22° C | 79% | 1020.1 hPa | - | - | - | - |
| 1777512769 | 12.78° C | 80% | 1020.2 hPa | - | - | - | - |
| 1777511869 | 12.78° C | 79% | 1020.1 hPa | - | - | - | - |
| 1777510969 | 12.78° C | 79% | 1020.1 hPa | - | - | - | - |
| 1777510069 | 13.33° C | 77% | 1020 hPa | - | - | - | - |
| 1777509168 | 12.78° C | 73% | 1019.7 hPa | - | - | - | - |
| 1777508268 | 13.33° C | 73% | 1019.8 hPa | - | - | - | - |
| 1777507368 | 13.33° C | 72% | 1020 hPa | - | - | - | - |
| 1777506468 | 13.89° C | 72% | 1019.9 hPa | - | - | - | - |
| 1777505568 | 13.89° C | 71% | 1019.9 hPa | - | - | - | - |
| 1777504668 | 14.44° C | 72% | 1020 hPa | - | - | - | - |
| 1777503768 | 14.44° C | 74% | 1019.9 hPa | - | - | - | - |
| 1777502868 | 15° C | 77% | 1019.8 hPa | - | - | - | - |
| 1777501968 | 15° C | 76% | 1019.7 hPa | - | - | - | - |
| 1777501068 | 15° C | 72% | 1019.7 hPa | - | - | - | - |
| 1777500167 | 15° C | 73% | 1019.6 hPa | - | - | - | - |
| 1777499267 | 15.56° C | 73% | 1019.4 hPa | - | - | - | - |
| 1777498367 | 16.11° C | 70% | 1019.1 hPa | - | - | - | - |
| 1777497467 | 16.67° C | 71% | 1019.1 hPa | - | - | - | - |
| 1777496567 | 16.67° C | 68% | 1018.9 hPa | - | - | - | - |
| 1777495667 | 16.67° C | 67% | 1018.7 hPa | - | - | - | - |
| 1777494767 | 17.22° C | 69% | 1018.7 hPa | - | - | - | - |
| 1777493867 | 17.78° C | 68% | 1018.5 hPa | - | - | - | - |
| 1777492967 | 18.33° C | 64% | 1018.3 hPa | - | - | - | - |
* Rain since midnight (hover to see other rain measurements)
** Current wind speed in m/s (hover to see current wind gust speed)